[ hide orbit diagram ]
For accurate long-term ephemerides, please instead use our Horizons system.This orbit viewer was implemented using two-body methods, and hence should not be used for determining accurate long-term trajectories (over several years or decades) or planetary encounter circumstances.
Orbital Elements at Epoch 2459200.5 (2020-Dec-17.0) TDB
Reference: JPL 35 (heliocentric ecliptic J2000)
Element | Value | Uncertainty (1-sigma) | Units |
e | .1000083802160579 | 3.2934e-08 | |
a | 2.573688972818892 | 1.0481e-08 | au |
q | 2.316298507467345 | 8.5582e-08 | au |
i | 2.237353780686113 | 3.672e-06 | deg |
node | 268.7085112092831 | 0.00010366 | deg |
peri | 320.2147277123084 | 0.0001057 | deg |
M | 94.37387441056352 | 2.1692e-05 | deg |
tp | 2458805.149944914134 (2019-Nov-17.64994491) | 9.0299e-05 | TDB |
period | 1508.108263222695 4.13 | 9.2124e-06 2.522e-08 | d yr |
n | .2387096528671699 | 1.4582e-09 | deg/d |
Q | 2.831079438170439 | 1.1529e-08 | au |
|
| | Orbit Determination Parameters
Additional Information
|
[ show covariance matrix ]
Physical Parameter Table
Parameter |
Symbol |
Value |
Units |
Sigma |
Reference |
Notes |
absolute magnitude |
H |
14.25 |
|
n/a |
E2021B10 |
|
diameter |
diameter |
4.720 |
km |
0.314 |
urn:nasa:pds:neowise_diameters_albedos::2.0[mainbelt] (http://adsabs.harvard.edu/abs/2011ApJ...741...68M) |
|
geometric albedo |
albedo |
0.199 |
|
0.021 |
urn:nasa:pds:neowise_diameters_albedos::2.0[mainbelt] (http://adsabs.harvard.edu/abs/2011ApJ...741...68M) |
|
|
17945 Hawass | Discovered 1999 May 14 by J. Broughton at Reedy Creek Observatory. |
Egyptian archeologist Zahi A. Hawass (b. 1947) showed unfailing dedication in the battle of preserving Egypt's monuments and antiquities. He has also been involved in many important discoveries such as the pyramid builder's necropolis at Giza and golden mummies of El Bahariya Oasis. |
NOTE: some special characters may not display properly (any characters within {} are an attempt to place the proper accent above a character) |
Reference: 20010705/MPCPages.arc | Last Updated: 2009-05-11 |
|
[ show close-approach data ]
|